Regional Weather Roundup
Issued by NWS

Home | Current Version | Previous Version | Text Only | Print | Product List | Glossary Off
Versions: 1 2 3 4 5 6 7 8 9 10 11 12 13 14 15 16 17 18 19 20 21 22 23 24 25 26 27 28 29 30 31 32 33 34 35 36 37 38 39 40 41 42 43 44 45 46 47 48 49 50

000
ASUS44 KOUN 210410
RWROK

WEATHER ROUNDUP FOR OKLAHOMA
NATIONAL WEATHER SERVICE NORMAN OK
1100 PM CDT MON OCT 20 2014

NOTE: "FAIR" INDICATES FEW OR NO CLOUDS BELOW 12,000 FEET WITH NO
      SIGNIFICANT WEATHER AND/OR OBSTRUCTIONS TO VISIBILITY.

OKZ001>007-009>012-014-015-017-210500-
NORTHWEST OKLAHOMA AND THE PANHANDLE

CITY           SKY/WX    TMP DP  RH WIND       PRES   REMARKS
GAGE           CLEAR     58  56  93 CALM      30.09R
ENID/WOODRING  CLEAR     64  61  88 E7        30.05S
$$

OKZ016-021>023-033>039-044-045-210500-
SOUTHWEST OKLAHOMA

CITY           SKY/WX    TMP DP  RH WIND       PRES   REMARKS
LAWTON/REGL    CLEAR     65  58  78 CALM      30.05R
LAWTON/FT SILL CLEAR     67  59  75 SE6       30.04R
FREDERICK      CLEAR     67  58  72 S6        30.02R
CLINTON        CLOUDY    67  58  72 S8        30.08R
HOBART         CLEAR     66  57  72 S8        30.06R
ALTUS AFB      CLEAR     63  58  85 SE3       30.05R
$$

OKZ018>020-024>031-210500-
CENTRAL OKLAHOMA

CITY           SKY/WX    TMP DP  RH WIND       PRES   REMARKS
OKLAHOMA CITY  CLEAR     66  61  84 SE7       30.05S
OKC/WILEY POST CLEAR     70  62  76 SE7       30.05S
OKC/TINKER AFB CLEAR     67  61  83 SE7       30.06R
STILLWATER     CLEAR     62  59  90 E5        30.06R
GUTHRIE        CLEAR     68  61  78 E9        30.05S
$$

OKZ008-013-054>072-210500-
NORTHEAST OKLAHOMA

CITY           SKY/WX    TMP DP  RH WIND       PRES   REMARKS
TULSA          MOCLDY    65  60  84 SE5       30.05S
TULSA/JONES    MOCLDY    64  61  90 CALM      30.06S
PONCA CITY     MOCLDY    64  59  83 SE3       30.06S
BARTLESVILLE   CLEAR     52  52 100 CALM      30.07S
MUSKOGEE       MOCLDY    63  61  93 CALM      30.07S
$$

OKZ032-040>043-046>053-073>077-210500-
SOUTH CENTRAL/SOUTHEAST OKLAHOMA

CITY           SKY/WX    TMP DP  RH WIND       PRES   REMARKS
ARDMORE/DWNTWN CLEAR     63  61  94 CALM      30.05S
MCALESTER      CLEAR     62  59  90 CALM      30.06S
$$




USA.gov is the U.S. government's official web portal to all federal, state and local government web resources and services.